Showing default

LEMUR 2 TOMATOKECHUP, 60471

Orbit data source: Space-Track

LEMUR 2 TOMATOKECHUP, 60471 is an American payload satellite in SSO that was launched on Fri, 16 Aug 2024 UTC via an FALCON 9 launch vehicle from the Air Force Western Test Range (AFWTR). Payload-class satellites include a variety of spacecraft equipped with specific instruments for various scientific and technological missions. These include communications satellites like Starlink; space stations such as the ISS; scientific satellites like the Hubble; Earth observation satellites from companies like Planet Labs, Umbra, and HawkEye 360; GPS; miniature CubeSats for education and research; and military/defense satellites.

Loading next visibility...
Identifier
60471, 2024-149D
Orbit
SSO
Last TLE update
12 hours ago
Origin
Manufacturer
Spire/Glasgow
Mission
Operational Commercial Communications
Bus & Motor
CUBESAT 16U, Unknown motor
Mass
22 kg wet, 22 kg dry
Launch date (UTC)
2024-08-16 (10 months ago)
Launch vehicle
FALCON 9
Launch site
Air Force Western Test Range (AFWTR)
Object type
Payload
Rocket body
Debris
Shape & HBR
Box + 4 Pan, 2 m
Radar Cross Section
0.326 m², Medium (>0.1 m² and < 1m²)

Expand to show TLE details & history

TLE from 12 hours ago
0 LEMUR 2 TOMATOKECHUP
1 60471U 24149D   25181.78768498  .00005882  00000-0  22399-3 0  9993
2 60471  97.4118 259.6706 0003265  73.3530 286.8067 15.27111712 48380
Epoch: 2025-06-30T18:54Z
TLE epoch observation values (Epoch: 2025-06-30T18:54:15.982Z)
Latitude
-0.00003°
Longitude
57.01154°
Altitude
486.904 km
Speed
7.622 km/s
True Right ascension
17h 18m 40s
True Declination
0° 00' 00"
Sunlit
Object was in full shadow at epoch
Visualization orbit readout
Latitude
-52.89259°
Longitude
-132.33751°
Altitude
507.151 km
Speed
7.608 km/s
Apparent Right ascension
05h 42m 10s
Apparent Declination
-47° 20' 04"
Sunlit
Object is in daylight
Visualization observer readout
Local Sidereal Time
18:33:43
Azimuth
132.815° SE
Elevation
-78.106°
Doppler factor
1
Orbital elements
Apogee altitude
483.648 km
Perigee altitude
479.169 km
Semi-major axis
6,859.545 km
Eccentricity
0.00033
Inclination
97.4118°
RAAN
259.6706°
Arg. of periapsis
73.353°
True anomaly
Unknown
Mean anomaly
286.8067°
Eccentric anomaly
Unknown
Mean motion
3.82032 °/min
Orbital period
94.23 mins
BSTAR
0.00022399
Loading maneuver chart data...
Loading SW <> Apogee altitude chart data...
Loading historical data...
Loading historical data...
Loading historical data...
Loading historical data...
Loading historical data...
Loading historical data...
Loading historical data...

LEMUR 2 TOMATOKECHUP Visibility forecast

Observer location: undefined°, undefined°

Span
Click to sort rows by Start time (UTC) header in descending order
Start Az.
Max El. time (UTC)
Max El. Az.
Max El.
End time (UTC)
End Az.
5 mins2025-07-01 17:29:51.431Z44.386° NE2025-07-01 17:31:51.431Z88.655° E25.141°2025-07-01 17:34:51.431Z154.841° SSE
4 mins2025-07-02 05:38:51.431Z206.293° SW2025-07-02 05:40:51.431Z282.882° WNW32.691°2025-07-02 05:42:51.431Z327.177° NNW
|